FW8496 Weather Reports


Display with metric or nautical units.
time (UTC)temp
F
wind
direction
speed
MPH
gust
MPH
rain 1hr
in
rain 24hr
in
rain mn
in
humidity
%
barometer
mb
20260904222041 89 134 6.0 13.0 0.00 0.01 0.01 29 1021.4
20260904221556 89 194 6.0 16.0 0.00 0.01 0.01 28 1021.5
20260904221042 89 230 6.0 16.0 0.00 0.01 0.01 28 1021.5
20260904220543 90 264 3.0 11.0 0.00 0.01 0.01 28 1021.5
20260904220052 90 294 5.0 13.0 0.00 0.01 0.01 27 1021.5
20260904215542 90 202 7.0 14.0 0.00 0.01 0.01 27 1021.7
20260904215042 91 259 5.0 14.0 0.00 0.01 0.01 27 1021.6
20260904214612 91 190 4.0 9.0 0.00 0.01 0.01 27 1021.7
20260904214042 91 220 1.0 9.0 0.00 0.01 0.01 27 1021.7
20260904213542 91 180 3.0 10.0 0.00 0.01 0.01 27 1021.8
20260904213056 91 221 3.0 10.0 0.00 0.01 0.01 27 1021.9
20260904212545 91 193 3.0 14.0 0.00 0.01 0.01 28 1022.0
20260904212042 91 290 7.0 14.0 0.00 0.01 0.01 27 1022.0
20260904211554 92 179 4.0 8.0 0.00 0.01 0.01 27 1022.0
20260904211041 91 229 2.0 5.0 0.00 0.01 0.01 28 1022.1
20260904210541 90 278 1.0 4.0 0.00 0.01 0.01 30 1022.1
20260904210059 89 261 0.0 5.0 0.00 0.01 0.01 30 1022.2
20260904205545 88 0 0.0 14.0 0.00 0.01 0.01 31 1022.3
20260904205042 87 308 2.0 14.0 0.00 0.01 0.01 31 1022.4
20260904204554 87 259 7.0 14.0 0.00 0.01 0.01 31 1022.5
20260904204046 88 252 4.0 9.0 0.00 0.01 0.01 32 1022.5
20260904203542 88 310 4.0 8.0 0.00 0.01 0.01 31 1022.5
20260904203053 88 340 1.0 11.0 0.00 0.01 0.01 31 1022.7
20260904202542 88 0 1.0 11.0 0.00 0.01 0.01 32 1022.7
20260904202042 88 244 6.0 11.0 0.00 0.01 0.01 31 1022.8
20260904201553 88 10 2.0 6.0 0.00 0.01 0.01 32 1022.7
20260904201043 88 245 2.0 9.0 0.00 0.01 0.01 32 1022.8
20260904200542 88 352 2.0 10.0 0.00 0.01 0.01 31 1022.9
20260904200117 88 311 3.0 11.0 0.00 0.01 0.01 32 1023.0
20260904195541 89 315 3.0 11.0 0.00 0.01 0.01 31 1023.1
20260904195042 89 319 3.0 8.0 0.00 0.01 0.01 31 1023.2
20260904194609 89 200 0.0 8.0 0.00 0.01 0.01 31 1023.4
20260904194042 88 104 3.0 9.0 0.00 0.01 0.01 33 1023.5
20260904193542 88 153 5.0 9.0 0.00 0.01 0.01 33 1023.5
20260904193052 88 104 4.0 9.0 0.00 0.01 0.01 34 1023.5
20260904192541 87 138 2.0 7.0 0.00 0.01 0.01 35 1023.6
20260904192046 86 116 3.0 7.0 0.00 0.01 0.01 35 1023.7
20260904191550 86 92 3.0 11.0 0.00 0.01 0.01 36 1023.7
20260904191042 85 109 3.0 11.0 0.00 0.01 0.01 37 1023.8
20260904190542 84 157 4.0 11.0 0.00 0.01 0.01 37 1023.8
20260904190057 84 142 3.0 11.0 0.00 0.01 0.01 39 1024.0
20260904185541 83 69 5.0 11.0 0.00 0.01 0.01 39 1024.0
20260904185041 82 167 3.0 9.0 0.00 0.01 0.01 41 1024.2
20260904184610 81 0 3.0 9.0 0.00 0.01 0.01 40 1024.3
20260904184043 80 143 2.0 9.0 0.00 0.01 0.01 42 1024.3
20260904183545 80 0 0.0 9.0 0.00 0.01 0.01 43 1024.3
20260904183050 79 161 1.0 7.0 0.00 0.01 0.01 43 1024.5
20260904182542 79 132 0.0 6.0 0.00 0.01 0.01 43 1024.5
20260904182043 78 212 2.0 6.0 0.00 0.01 0.01 43 1024.5
20260904181612 78 0 0.0 6.0 0.00 0.01 0.01 44 1024.7
20260904181042 78 275 1.0 7.0 0.00 0.01 0.01 45 1024.7
20260904180542 77 238 3.0 9.0 0.00 0.01 0.01 46 1024.8
20260904180055 77 225 4.0 12.0 0.00 0.01 0.01 47 1024.8
20260904175543 77 204 5.0 13.0 0.00 0.01 0.01 47 1025.0
20260904175042 77 200 7.0 13.0 0.00 0.01 0.01 47 1025.0
20260904174603 77 246 5.0 11.0 0.00 0.01 0.01 47 1025.1
20260904174042 77 202 2.0 11.0 0.00 0.01 0.01 47 1025.0
20260904173542 76 240 1.0 5.0 0.00 0.01 0.01 45 1025.0
20260904173058 76 302 2.0 5.0 0.00 0.01 0.01 44 1024.9
20260904172542 75 327 2.0 5.0 0.00 0.01 0.01 45 1024.9
20260904172044 75 215 1.0 6.0 0.00 0.01 0.01 46 1024.9
20260904171621 75 65 3.0 7.0 0.00 0.01 0.01 45 1024.8
20260904171043 75 349 2.0 7.0 0.00 0.01 0.01 46 1024.9
20260904170541 75 313 1.0 4.0 0.00 0.01 0.01 48 1024.9
20260904170050 74 0 1.0 9.0 0.00 0.01 0.01 48 1024.9
20260904165542 74 293 1.0 9.0 0.00 0.01 0.01 50 1024.9
20260904165041 74 331 2.0 8.0 0.00 0.01 0.01 49 1024.7
20260904164618 74 17 3.0 8.0 0.00 0.01 0.01 49 1024.7
20260904164042 74 323 3.0 9.0 0.00 0.01 0.01 49 1024.7
20260904163542 74 5 0.0 9.0 0.00 0.01 0.01 49 1024.7
20260904163057 73 19 4.0 9.0 0.00 0.01 0.01 50 1024.7
20260904162542 73 333 2.0 4.0 0.00 0.01 0.01 52 1024.8
20260904162041 72 0 0.0 4.0 0.00 0.01 0.01 54 1024.9
20260904161559 71 336 0.0 5.0 0.00 0.01 0.01 54 1024.8
20260904161042 71 336 2.0 5.0 0.00 0.01 0.01 54 1024.8
20260904160543 71 352 2.0 5.0 0.00 0.01 0.01 54 1024.7
20260904160053 70 313 1.0 5.0 0.00 0.01 0.01 56 1024.8
20260904155543 70 198 1.0 6.0 0.00 0.01 0.01 58 1024.9
20260904155042 69 161 2.0 6.0 0.00 0.01 0.01 58 1024.9
20260904154552 69 171 2.0 7.0 0.00 0.01 0.01 60 1024.9
20260904154042 68 218 2.0 7.0 0.00 0.01 0.01 60 1024.9
20260904153542 68 193 3.0 7.0 0.00 0.01 0.01 61 1024.8
20260904153056 67 196 2.0 5.0 0.00 0.01 0.01 63 1024.8
20260904152542 67 207 1.0 4.0 0.00 0.01 0.01 64 1024.8
20260904152041 67 207 2.0 6.0 0.00 0.01 0.01 65 1024.7
20260904151555 66 175 2.0 6.0 0.00 0.01 0.01 66 1024.6
20260904151042 66 163 1.0 5.0 0.00 0.01 0.01 68 1024.7
20260904150541 66 187 1.0 4.0 0.00 0.01 0.01 68 1024.6
20260904150106 65 0 0.0 3.0 0.00 0.01 0.01 69 1024.5
20260904145542 65 0 0.0 4.0 0.00 0.01 0.01 71 1024.6
20260904145042 65 140 1.0 4.0 0.00 0.01 0.01 71 1024.5
20260904144557 65 140 1.0 4.0 0.00 0.01 0.01 72 1024.6
20260904144042 64 148 0.0 3.0 0.00 0.01 0.01 73 1024.5
20260904143542 64 0 0.0 3.0 0.00 0.01 0.01 73 1024.5
20260904143107 64 0 0.0 3.0 0.00 0.01 0.01 73 1024.4
20260904142542 63 0 1.0 3.0 0.00 0.01 0.01 74 1024.4
20260904142042 63 140 0.0 2.0 0.00 0.01 0.01 74 1024.4
20260904141604 63 0 0.0 2.0 0.00 0.01 0.01 74 1024.2
20260904141041 63 140 0.0 2.0 0.00 0.01 0.01 75 1024.3
20260904140542 62 0 0.0 2.0 0.00 0.01 0.01 75 1024.3
20260904140059 62 0 0.0 3.0 0.00 0.01 0.01 75 1024.2
20260904135542 62 140 0.0 5.0 0.00 0.01 0.01 75 1024.2
20260904135042 62 140 1.0 5.0 0.00 0.01 0.01 76 1024.2
20260904134604 62 140 1.0 3.0 0.00 0.01 0.01 76 1024.1
20260904134050 62 0 0.0 2.0 0.00 0.01 0.01 76 1024.0
20260904133542 62 0 1.0 2.0 0.00 0.01 0.01 76 1023.9
20260904133116 62 0 0.0 4.0 0.00 0.01 0.01 76 1023.8
20260904132542 61 140 1.0 4.0 0.00 0.01 0.01 76 1023.7
20260904132043 61 140 2.0 4.0 0.00 0.01 0.01 76 1023.6
20260904131602 61 85 2.0 4.0 0.00 0.01 0.01 76 1023.5
20260904131042 61 142 2.0 6.0 0.00 0.01 0.01 76 1023.5
20260904130542 61 134 2.0 6.0 0.00 0.01 0.01 76 1023.5
20260904130100 61 124 2.0 6.0 0.01 0.01 0.01 77 1023.3
20260904125542 61 133 3.0 6.0 0.01 0.01 0.01 77 1023.4
20260904125042 61 155 2.0 7.0 0.01 0.01 0.01 77 1023.2
20260904124605 61 128 3.0 7.0 0.01 0.01 0.01 77 1023.1
20260904124042 61 134 2.0 4.0 0.01 0.01 0.01 78 1023.1
20260904123541 61 135 2.0 5.0 0.01 0.01 0.01 78 1023.0
20260904123103 61 135 2.0 5.0 0.01 0.01 0.01 78 1023.0
20260904122544 61 135 2.0 5.0 0.01 0.01 0.01 78 1023.0
20260904122042 61 137 3.0 5.0 0.01 0.01 0.01 78 1023.0
20260904121556 62 144 3.0 5.0 0.01 0.01 0.01 78 1023.1
20260904121042 62 140 2.0 5.0 0.01 0.01 0.01 78 1023.0
20260904120544 62 142 2.0 5.0 0.01 0.01 0.01 78 1022.9
20260904115542 63 171 1.0 5.0 0.00 0.00 0.00 76 1022.8
20260904115042 63 156 0.0 6.0 0.00 0.00 0.00 75 1022.8
20260904114601 63 163 1.0 6.0 0.00 0.00 0.00 75 1022.7
20260904114042 63 126 2.0 6.0 0.00 0.00 0.00 75 1022.6
20260904113541 63 151 3.0 8.0 0.00 0.00 0.00 74 1022.7
20260904113053 64 140 2.0 8.0 0.00 0.00 0.00 73 1022.7
20260904112541 64 161 3.0 7.0 0.00 0.00 0.00 70 1022.6
20260904112042 64 171 3.0 8.0 0.00 0.00 0.00 71 1022.5
20260904111554 64 164 4.0 8.0 0.00 0.00 0.00 71 1022.4
20260904111042 64 146 3.0 7.0 0.00 0.00 0.00 71 1022.5
20260904110544 64 159 3.0 7.0 0.00 0.00 0.00 70 1022.4
20260904110051 64 161 2.0 8.0 0.00 0.00 0.00 71 1022.4
20260904105545 64 183 3.0 8.0 0.00 0.00 0.00 69 1022.3
20260904105042 64 133 4.0 8.0 0.00 0.00 0.00 70 1022.3
20260904104612 63 108 2.0 7.0 0.00 0.00 0.00 70 1022.3
20260904104041 63 159 3.0 9.0 0.00 0.00 0.00 69 1022.2
20260904103542 63 128 3.0 9.0 0.00 0.00 0.00 71 1022.3
20260904103057 63 130 3.0 9.0 0.00 0.00 0.00 71 1022.0
20260904102543 63 127 2.0 7.0 0.00 0.00 0.00 71 1022.1
20260904102043 63 98 1.0 5.0 0.00 0.00 0.00 71 1022.0
20260904101551 63 0 1.0 6.0 0.00 0.00 0.00 70 1022.0
20260904101042 63 101 1.0 6.0 0.00 0.00 0.00 70 1022.0
20260904100542 63 78 3.0 7.0 0.00 0.00 0.00 70 1021.9
20260904100118 63 119 1.0 7.0 0.00 0.00 0.00 72 1022.0
20260904095542 63 125 3.0 7.0 0.00 0.00 0.00 72 1022.0
20260904095042 63 87 3.0 7.0 0.00 0.00 0.00 72 1021.9
20260904094603 63 96 2.0 6.0 0.00 0.00 0.00 72 1021.9
20260904094041 63 102 1.0 8.0 0.00 0.00 0.00 73 1021.9
20260904093542 63 88 4.0 8.0 0.00 0.00 0.00 73 1021.9
20260904093051 63 94 3.0 9.0 0.00 0.00 0.00 73 1021.9
20260904092542 63 98 6.0 9.0 0.00 0.00 0.00 72 1021.7
20260904092047 64 94 2.0 5.0 0.00 0.00 0.00 71 1021.9
20260904091558 64 133 2.0 6.0 0.00 0.00 0.00 70 1022.1
20260904091042 64 153 2.0 6.0 0.00 0.00 0.00 70 1022.3
20260904090541 65 135 3.0 5.0 0.00 0.00 0.00 69 1022.3
20260904090054 65 139 2.0 5.0 0.00 0.00 0.00 65 1022.2
20260904085542 65 79 0.0 2.0 0.00 0.00 0.00 62 1022.2
20260904085042 65 79 0.0 2.0 0.00 0.00 0.00 61 1022.1
20260904084552 65 79 0.0 3.0 0.00 0.00 0.00 61 1022.1
20260904084041 65 79 1.0 3.0 0.00 0.00 0.00 60 1022.1
20260904083542 65 79 0.0 3.0 0.00 0.00 0.00 60 1022.0
20260904083050 65 79 1.0 3.0 0.00 0.00 0.00 60 1022.0
20260904082542 65 79 2.0 3.0 0.00 0.00 0.00 60 1022.0
20260904082046 65 79 1.0 3.0 0.00 0.00 0.00 60 1022.1
20260904081555 65 79 1.0 3.0 0.00 0.00 0.00 60 1022.1
20260904081042 65 79 1.0 2.0 0.00 0.00 0.00 61 1022.1
20260904080542 64 0 0.0 3.0 0.00 0.00 0.00 61 1022.1
20260904080113 64 79 1.0 3.0 0.00 0.00 0.00 61 1022.2
20260904075542 64 79 2.0 3.0 0.00 0.00 0.00 61 1022.1
20260904075042 64 79 1.0 2.0 0.00 0.00 0.00 61 1022.2
20260904074603 64 79 0.0 2.0 0.00 0.00 0.00 61 1022.2
20260904074042 64 79 1.0 4.0 0.00 0.00 0.00 61 1022.2
20260904073542 64 79 1.0 5.0 0.00 0.00 0.00 61 1022.2
20260904073048 64 79 3.0 5.0 0.00 0.00 0.00 60 1022.2
20260904072542 65 84 2.0 4.0 0.00 0.00 0.00 60 1022.2
20260904072042 65 78 1.0 4.0 0.00 0.00 0.00 60 1022.3
20260904071556 65 78 3.0 4.0 0.00 0.00 0.00 59 1022.2
20260904071042 65 309 1.0 3.0 0.00 0.00 0.00 59 1022.3
20260904070542 65 309 0.0 3.0 0.00 0.00 0.00 58 1022.4
20260904070054 65 0 0.0 3.0 0.00 0.00 0.00 58 1022.3
20260904065542 66 0 1.0 3.0 0.00 0.00 0.00 58 1022.4
20260904065041 66 309 0.0 4.0 0.00 0.00 0.00 58 1022.3
20260904064602 66 309 2.0 4.0 0.00 0.00 0.00 58 1022.4
20260904064041 66 309 2.0 4.0 0.00 0.00 0.00 58 1022.2
20260904063543 66 309 2.0 4.0 0.00 0.00 0.00 57 1022.4
20260904063051 67 309 2.0 4.0 0.00 0.00 0.00 56 1022.4
20260904062542 67 309 2.0 4.0 0.00 0.00 0.00 56 1022.4
20260904062042 67 309 2.0 4.0 0.00 0.00 0.00 55 1022.3
20260904061555 67 309 1.0 2.0 0.00 0.00 0.00 54 1022.4
20260904061043 67 0 0.0 2.0 0.00 0.00 0.00 53 1022.5
20260904060542 68 0 0.0 3.0 0.00 0.00 0.00 53 1022.4
20260904060122 68 309 1.0 3.0 0.00 0.00 0.00 53 1022.4
20260904055542 68 309 1.0 3.0 0.00 0.00 0.00 53 1022.4
20260904055041 68 0 0.0 4.0 0.00 0.00 0.00 52 1022.4
20260904054552 68 309 2.0 4.0 0.00 0.00 0.00 52 1022.4
20260904054044 68 309 3.0 4.0 0.00 0.00 0.00 52 1022.3
20260904053541 68 309 2.0 5.0 0.00 0.00 0.00 52 1022.4
20260904053140 68 309 3.0 5.0 0.00 0.00 0.00 51 1022.5
20260904052542 68 314 2.0 4.0 0.00 0.00 0.00 51 1022.7
20260904052042 68 314 2.0 4.0 0.00 0.00 0.00 50 1022.6
20260904051608 68 314 2.0 4.0 0.00 0.00 0.00 50 1022.6
20260904051042 68 314 2.0 4.0 0.00 0.00 0.00 50 1022.5
20260904050542 68 74 1.0 3.0 0.00 0.00 0.00 50 1022.6
20260904050056 68 74 1.0 3.0 0.00 0.00 0.00 49 1022.6
20260904045542 68 74 1.0 2.0 0.00 0.00 0.00 50 1022.5
20260904045042 69 74 0.0 2.0 0.00 0.00 0.00 49 1022.6
20260904044602 69 0 0.0 2.0 0.00 0.00 0.00 49 1022.5
20260904044042 69 74 1.0 2.0 0.00 0.00 0.00 49 1022.5
20260904043542 69 74 0.0 4.0 0.00 0.00 0.00 49 1022.5
20260904043114 69 0 0.0 4.0 0.00 0.00 0.00 49 1022.6
20260904042542 69 74 2.0 4.0 0.00 0.00 0.00 49 1022.6
20260904042042 69 39 2.0 4.0 0.00 0.00 0.00 49 1022.7
20260904041606 69 36 2.0 5.0 0.00 0.00 0.00 49 1022.7
20260904041042 69 45 3.0 5.0 0.00 0.00 0.00 49 1022.8
20260904040542 69 76 3.0 8.0 0.00 0.00 0.00 49 1022.7
20260904040057 69 80 3.0 8.0 0.00 0.00 0.00 49 1022.7
20260904035543 69 66 4.0 7.0 0.00 0.00 0.00 49 1022.7
20260904035042 69 63 3.0 6.0 0.00 0.00 0.00 50 1022.7
20260904034551 69 76 2.0 5.0 0.00 0.00 0.00 50 1022.8
20260904034041 69 63 3.0 5.0 0.00 0.00 0.00 49 1022.9
20260904033543 69 67 2.0 6.0 0.00 0.00 0.00 50 1022.9
20260904033106 69 67 2.0 7.0 0.00 0.00 0.00 49 1022.9
20260904032542 70 60 3.0 8.0 0.00 0.00 0.00 49 1022.8
20260904032042 70 74 4.0 8.0 0.00 0.00 0.00 49 1022.8
20260904031600 70 70 4.0 8.0 0.00 0.00 0.00 49 1022.7
20260904031042 70 67 4.0 8.0 0.00 0.00 0.00 48 1022.7
20260904030542 70 46 2.0 8.0 0.00 0.00 0.00 47 1022.7
20260904030103 71 12 3.0 9.0 0.00 0.00 0.00 47 1022.7
20260904025542 71 351 5.0 9.0 0.00 0.00 0.00 46 1022.6
20260904025042 71 15 3.0 11.0 0.00 0.00 0.00 46 1022.5
20260904024606 72 340 4.0 11.0 0.00 0.00 0.00 45 1022.5
20260904024044 73 360 5.0 14.0 0.00 0.00 0.00 45 1022.3
20260904023542 73 318 7.0 18.0 0.00 0.00 0.00 43 1022.4
20260904023101 73 301 9.0 18.0 0.00 0.00 0.00 42 1022.2
20260904022541 74 314 10.0 18.0 0.00 0.00 0.00 41 1022.1
20260904022041 74 285 4.0 10.0 0.00 0.00 0.00 41 1021.9
20260904021600 74 244 5.0 10.0 0.00 0.00 0.00 41 1021.9
20260904021042 75 286 5.0 10.0 0.00 0.00 0.00 41 1021.8
20260904020542 75 284 5.0 12.0 0.00 0.00 0.00 41 1021.8
20260904020056 76 285 6.0 17.0 0.00 0.00 0.00 40 1021.7
20260904015541 76 267 8.0 17.0 0.00 0.00 0.00 39 1021.7
20260904015042 77 263 7.0 16.0 0.00 0.00 0.00 38 1021.7
20260904014604 77 256 7.0 16.0 0.00 0.00 0.00 36 1021.5
20260904014042 78 222 4.0 11.0 0.00 0.00 0.00 35 1021.3
20260904013539 78 240 4.0 11.0 0.00 0.00 0.00 34 1021.3
20260904013100 78 237 3.0 9.0 0.00 0.00 0.00 34 1021.3
20260904012544 78 219 3.0 9.0 0.00 0.00 0.00 34 1021.3
20260904012043 79 209 4.0 8.0 0.00 0.00 0.00 34 1021.1
20260904011553 79 242 4.0 8.0 0.00 0.00 0.00 33 1021.2
20260904011042 79 238 3.0 7.0 0.00 0.00 0.00 33 1021.1
20260904010542 79 201 3.0 6.0 0.00 0.00 0.00 33 1021.1
20260904010049 79 233 3.0 6.0 0.00 0.00 0.00 32 1021.1
20260904005541 80 202 3.0 9.0 0.00 0.00 0.00 32 1021.1
20260904005041 80 207 3.0 10.0 0.00 0.00 0.00 32 1021.1
20260904004554 80 218 4.0 11.0 0.00 0.00 0.00 31 1021.1
20260904004042 81 227 5.0 11.0 0.00 0.00 0.00 31 1021.0
20260904003542 81 225 4.0 10.0 0.00 0.00 0.00 31 1021.1
20260904003052 82 196 5.0 9.0 0.00 0.00 0.00 30 1021.1
20260904002542 83 217 3.0 10.0 0.00 0.00 0.00 29 1021.1
20260904002043 83 197 4.0 11.0 0.00 0.00 0.00 29 1021.1
20260904001603 84 208 4.0 13.0 0.00 0.00 0.00 28 1021.1
20260904001042 85 240 5.0 13.0 0.00 0.00 0.00 28 1021.1
20260904000542 85 185 6.0 13.0 0.00 0.00 0.00 28 1021.0
20260904000115 86 202 6.0 15.0 0.00 0.00 0.00 28 1021.0
20260903235541 86 153 7.0 15.0 0.00 0.00 0.00 27 1021.0
20260903235042 86 199 6.0 14.0 0.00 0.00 0.00 27 1021.0
20260903234556 87 196 5.0 12.0 0.00 0.00 0.00 27 1021.0
20260903234116 87 204 6.0 12.0 0.00 0.00 0.00 27 1021.0
20260903233541 87 200 7.0 12.0 0.00 0.00 0.00 27 1020.9
20260903233117 87 211 5.0 14.0 0.00 0.00 0.00 27 1020.9
20260903232541 87 178 5.0 14.0 0.00 0.00 0.00 27 1020.9
20260903232042 86 194 3.0 12.0 0.00 0.00 0.00 27 1021.0
20260903231550 86 251 6.0 14.0 0.00 0.00 0.00 27 1021.1
20260903231041 86 225 7.0 14.0 0.00 0.00 0.00 27 1021.1
20260903230542 85 217 8.0 14.0 0.00 0.00 0.00 28 1021.1
20260903230107 85 242 8.0 14.0 0.00 0.00 0.00 28 1021.1
20260903225541 85 225 5.0 12.0 0.00 0.00 0.00 29 1021.1
20260903225041 84 248 6.0 13.0 0.00 0.00 0.00 29 1021.3
20260903224628 85 206 6.0 13.0 0.00 0.00 0.00 28 1021.3
20260903224042 85 185 6.0 14.0 0.00 0.00 0.00 28 1021.2
20260903223543 86 198 6.0 15.0 0.00 0.00 0.00 28 1021.3
20260903223133 87 182 7.0 15.0 0.00 0.00 0.00 27 1021.3
20260903222542 87 248 5.0 12.0 0.00 0.00 0.00 26 1021.4